FENGYUN 1C DEB, 36734

Orbit data source: Space-Track

FENGYUN 1C DEB, 36734 is space debris in SSO originally from a launch on Mon, 10 May 1999 UTC launched from the Taiyaun Space Center, China (TSC). Fengyun 1C debris stems from the Chinese weather satellite Fengyun-1C, which was intentionally destroyed by a Chinese anti-satellite missile in 2007. This event dramatically increased the amount of space debris, with thousands of trackable fragments posing hazards to satellites and human spaceflight. The Fengyun 1C debris cloud has become a focal point in discussions about space sustainability and the need for international regulations to prevent the creation of new debris.

Loading next visibility...
Identifier
36734, 1999-025EBG
Orbit
SSO
Country
Flag of CNCN / PRC
Related business
Manufacturer
Unknown
Mission
Spacecraft
Bus & Motor
Unknown
Mass
Unknown
Launch date (UTC)
1999-05-10 (27 years ago)
Launch vehicle
Unknown
Launch site
Taiyaun Space Center, China (TSC)
Object type
Payload
Rocket body
Debris
Shape & HBR
Unknown shape, 0.1 m
Radar Cross Section
Small (<0.1 m²)

Expand to show TLE details & history
Last TLE update: 21 hours ago

TLE from 21 hours ago
0 FENGYUN 1C DEB
1 36734U 99025EBG 26235.38700970  .00002317  00000-0  95536-3 0  9994
2 36734  99.0423 295.7915 0034409 207.4925 152.4435 14.27535034863510
Epoch: 2026-08-23T09:17Z
TLE epoch observation values (Epoch: 2026-08-23T09:17:17.638Z)
Latitude
-0.00003°
Longitude
-175.21579°
Altitude
824.816 km
Speed
7.429 km/s
True Right ascension
19h 43m 09s
True Declination
0° 00' 00"
Sunlit
Object was in full shadow at epoch
Visualization orbit readout
Latitude
Unknown
Longitude
Unknown
Altitude
Unknown
Speed
Unknown
Apparent Right ascension
Unknown
Apparent Declination
Unknown
Sunlit
N/A
Visualization observer readout
Local Sidereal Time
21:34:05
Azimuth
Unknown
Elevation
Unknown
Doppler factor
Unknown
Orbital elements
Apogee altitude
821.836 km
Perigee altitude
772.457 km
Semi-major axis
7,175.284 km
Eccentricity
0.00344
Inclination
99.0423°
RAAN
295.7915°
Arg. of periapsis
207.4925°
True anomaly
152.62522°
Mean anomaly
152.4435°
Eccentric anomaly
152.53443°
Mean motion
3.57096 °/min
Orbital period
100.81 mins
BSTAR
0.00095536
Loading maneuver chart data...
Computing Atmospheric mass density...

Documentation

Showing up to 5 results
|